Weather History for Erzincan, Turkey

Change the Weather History Date:

Friday, January 4, 2013

  Actual Average Record
Temperature  
Mean Temperature 24 °F -  
Max Temperature 38 °F 35 °F - ()
Min Temperature 11 °F 20 °F - ()
Degree Days  
Heating Degree Days 40    
Moisture  
Dew Point 17 °F    
Average Humidity 78    
Maximum Humidity 100    
Minimum Humidity 28    
Precipitation  
Precipitation 0.00 in 0.04 in - ()
Sea Level Pressure  
Sea Level Pressure 30.14 in    
Wind  
Wind Speed 1 mph ()    
Max Wind Speed 5 mph    
Max Gust Speed -    
Visibility 4.3 miles    
Events      
T = Trace of Precipitation, MM = Missing Value Source: Averaged Metar Reports

Daily Weather History Graph

Daily Weather History Graph

Search for Another Location

Airport:

Trip Planner

Search our weather history database for the weather conditions in past years. The results will help you decide how hot, cold, wet, or windy it might be!

Date:

Astronomy

Jan. 04, 2013 Rise Set
Actual Time 6:43 AM EET 4:10 PM EET
Civil Twilight 6:12 AM EET 4:40 PM EET
Nautical Twilight 5:39 AM EET 5:14 PM EET
Astronomical Twilight 5:06 AM EET 5:47 PM EET
Moon 11:26 PM EET (1/4) 10:15 AM EET (1/4)
Length of Visible Light 10h 27m
Length of Day
9h 27m
Waning Gibbous, 58% of the Moon is Illuminated
Jan 4
Waning Gibbous
Jan 5
Last Quarter
Jan 11
New
Jan 19
First Quarter
Jan 27
Full

Hourly Weather History & Observations

Time (EET) Temp. Windchill Dew Point Humidity Pressure Visibility Wind Dir Wind Speed Gust Speed Precip Events Conditions
12:50 AM 17.6 °F - 17.6 °F 100% 30.30 in - Calm Calm - N/A   Clear
1:50 AM 17.6 °F - 15.8 °F 93% 30.30 in 4.3 mi Calm Calm - N/A   Unknown
2:00 AM 17 °F - 17 °F 98%  in 4 mi Calm Calm - -   Mist
2:50 AM 14.0 °F - 12.2 °F 93% 30.27 in 3.7 mi Variable 2.3 mph - N/A   Unknown
3:50 AM 15.8 °F 8.6 °F 14.0 °F 93% 30.27 in 3.7 mi NE 4.6 mph - N/A   Unknown
4:50 AM 14.0 °F - 14.0 °F 100% 30.24 in 3.7 mi Calm Calm - N/A   Unknown
5:50 AM 14.0 °F - 10.4 °F 86% 30.24 in 3.7 mi Calm Calm - N/A   Unknown
6:50 AM 12.2 °F - 10.4 °F 92% 30.24 in 3.7 mi Calm Calm - N/A   Unknown
7:50 AM 15.8 °F - 14.0 °F 93% 30.24 in 3.7 mi Calm Calm - N/A   Unknown
8:00 AM 15 °F - 15 °F 100%  in 4 mi Calm Calm - -   Mist
8:50 AM 23.0 °F - 17.6 °F 80% 30.24 in 4.3 mi Calm Calm - N/A   Unknown
9:50 AM 26.6 °F - 19.4 °F 74% 30.21 in 5.0 mi Calm Calm - N/A   Unknown
10:50 AM 30.2 °F - 19.4 °F 64% 30.18 in - Variable 1.2 mph - N/A   Clear
11:50 AM 32.0 °F - 17.6 °F 55% 30.15 in - Calm Calm - N/A   Clear
12:50 PM 35.6 °F - 15.8 °F 44% 30.09 in - Variable 2.3 mph - N/A   Clear
1:50 PM 37.4 °F - 17.6 °F 45% 30.06 in - Variable 1.2 mph - N/A   Clear
2:00 PM 37 °F - 15 °F 28%  in 6 mi SSE 1.2 mph - -   Clear
2:50 PM 37.4 °F - 15.8 °F 41% 30.06 in - Calm Calm - N/A   Clear
3:50 PM 33.8 °F 30.8 °F 17.6 °F 52% 30.06 in - SSE 3.5 mph - N/A   Clear
4:50 PM 30.2 °F - 21.2 °F 69% 30.06 in - Calm Calm - N/A   Clear
5:50 PM 26.6 °F - 19.4 °F 74% 30.04 in - Calm Calm - N/A   Clear
6:50 PM 24.8 °F - 19.4 °F 80% 30.04 in - Calm Calm - N/A   Clear
7:50 PM 23.0 °F - 19.4 °F 86% 30.04 in - Calm Calm - N/A   Clear
8:00 PM 22 °F - 20 °F 86%  in 6 mi Calm Calm - -  
8:50 PM 23.0 °F - 19.4 °F 86% 30.04 in - Calm Calm - N/A   Clear
9:50 PM 19.4 °F - 15.8 °F 86% 30.04 in - Calm Calm - N/A   Clear
10:50 PM 19.4 °F - 17.6 °F 93% 30.01 in - Calm Calm - N/A   Clear
11:50 PM 19.4 °F - 17.6 °F 93% 30.01 in - Calm Calm - N/A   Clear